Newton, KS

12:41 PM CST on December 14, 2019 (GMT -0600)
Newton City County

Weather History for KEWK - October, 2019

Change the Weather History Date:

Saturday, October 5, 2019

  Actual Average Record
Temperature  
Mean Temperature 64 °F -  
Max Temperature 73 °F 69 °F 89 °F (2007)
Min Temperature 54 °F 49 °F 37 °F (2012)
Degree Days  
Heating Degree Days 2    
Growing Degree Days 14 (Base 50)    
Moisture  
Dew Point 58 °F    
Average Humidity 80    
Maximum Humidity 100    
Minimum Humidity 38    
Precipitation  
Precipitation 0.32 in - - ()
Sea Level Pressure  
Sea Level Pressure 29.96 in    
Wind  
Wind Speed 14 mph (SW)    
Max Wind Speed 25 mph    
Max Gust Speed 30 mph    
Visibility 9 miles    
Events Rain , Thunderstorm    
Averages and records for this station are not official NWS values.
T = Trace of Precipitation, MM = Missing Value Source: NWS Daily Summary

Daily Weather History Graph

Daily Weather History Graph

Search for Another Location

Airport or City:

Astronomy

Oct. 05, 2019 Rise Set
Actual Time 7:28 AM CDT 7:06 PM CDT
Civil Twilight 7:01 AM CDT 7:32 PM CDT
Nautical Twilight 6:31 AM CDT 8:03 PM CDT
Astronomical Twilight 6:00 AM CDT 8:33 PM CDT
Moon 2:49 PM CDT (10/5) No Moon Set
Length of Visible Light 12h 30m
Length of Day
11h 38m
Waxing Crescent, 50% of the Moon is Illuminated
Oct 5
Waxing Crescent
Oct 13
Full
Oct 21
Last Quarter
Oct 27
New
Nov 4
First Quarter

Hourly Weather History & Observations

Time (CDT) Temp. Dew Point Humidity Pressure Visibility Wind Dir Wind Speed Gust Speed Precip Events Conditions
12:56 AM 61.0 °F 57.9 °F 90% 30.00 in 10.0 mi SSE 11.5 mph - N/A   Clear
1:56 AM 63.0 °F 60.1 °F 90% 29.97 in 10.0 mi SSE 15.0 mph - N/A   Clear
2:56 AM 63.0 °F 62.1 °F 97% 29.97 in 10.0 mi South 11.5 mph - N/A   Clear
3:56 AM 64.9 °F 63.0 °F 93% 29.95 in 10.0 mi SSE 13.8 mph - N/A   Mostly Cloudy
4:23 AM 64.4 °F 64.4 °F 100% 29.98 in 10.0 mi South 12.7 mph - N/A   Mostly Cloudy
4:48 AM 64.4 °F 64.4 °F 100% 29.98 in 10.0 mi South 13.8 mph - N/A   Overcast
5:56 AM 64.9 °F 64.9 °F 100% 29.93 in 6.0 mi South 13.8 mph - 0.01 in   Overcast
6:17 AM 66.2 °F 64.4 °F 94% 29.95 in 2.0 mi South 25.3 mph 29.9 mph 0.11 in Thunderstorm Overcast
6:24 AM 66.2 °F 64.4 °F 94% 29.95 in 1.2 mi South 17.3 mph 29.9 mph 0.25 in Rain , Thunderstorm Thunderstorms and Rain
6:29 AM 66.2 °F 64.4 °F 94% 29.94 in 4.0 mi South 18.4 mph - 0.26 in Rain , Thunderstorm Thunderstorms and Rain
6:56 AM 66.0 °F 64.9 °F 96% 29.92 in 9.0 mi South 16.1 mph - 0.29 in Thunderstorm Thunderstorm
7:14 AM 66.2 °F 64.4 °F 94% 29.93 in 10.0 mi South 15.0 mph - N/A   Mostly Cloudy
7:24 AM 66.2 °F 64.4 °F 94% 29.94 in 10.0 mi South 15.0 mph - N/A   Overcast
7:56 AM 64.9 °F 64.0 °F 97% 29.92 in 10.0 mi SSW 18.4 mph - N/A   Overcast
8:03 AM 66.2 °F 64.4 °F 94% 29.95 in 10.0 mi SSW 15.0 mph - N/A   Overcast
8:22 AM 66.2 °F 64.4 °F 94% 29.95 in 10.0 mi South 17.3 mph - N/A   Overcast
8:37 AM 66.2 °F 64.4 °F 94% 29.95 in 10.0 mi South 16.1 mph - N/A   Overcast
8:56 AM 66.9 °F 66.0 °F 97% 29.92 in 10.0 mi South 15.0 mph - N/A   Overcast
9:56 AM 68.0 °F 66.9 °F 96% 29.91 in 6.0 mi SSW 18.4 mph - 0.02 in   Overcast
10:54 AM 69.8 °F 66.2 °F 88% 29.97 in 10.0 mi West 13.8 mph 23.0 mph N/A   Overcast
10:56 AM 70.0 °F 66.9 °F 90% 29.94 in 10.0 mi West 16.1 mph 20.7 mph N/A   Overcast
11:03 AM 69.8 °F 66.2 °F 88% 29.97 in 10.0 mi West 11.5 mph 20.7 mph N/A   Overcast
11:48 AM 71.6 °F 62.6 °F 73% 29.97 in 10.0 mi NW 13.8 mph - N/A   Overcast
11:56 AM 70.0 °F 61.0 °F 73% 29.95 in 10.0 mi NW 21.9 mph 28.8 mph N/A   Overcast
12:56 PM 71.1 °F 48.9 °F 45% 29.97 in 10.0 mi NNW 17.3 mph - N/A   Clear
1:56 PM 72.0 °F 48.0 °F 43% 29.95 in 10.0 mi NNW 18.4 mph 24.2 mph N/A   Clear
2:56 PM 73.0 °F 46.0 °F 38% 29.95 in 10.0 mi North 17.3 mph 27.6 mph N/A   Clear
3:56 PM 72.0 °F 46.0 °F 40% 29.95 in 10.0 mi NW 20.7 mph - N/A   Clear
4:56 PM 70.0 °F 46.0 °F 42% 29.96 in 10.0 mi North 13.8 mph 21.9 mph N/A   Clear
5:56 PM 68.0 °F 46.0 °F 45% 29.98 in 10.0 mi North 15.0 mph - N/A   Clear
6:56 PM 63.0 °F 46.9 °F 56% 29.99 in 10.0 mi North 8.1 mph - N/A   Clear
7:56 PM 57.9 °F 48.0 °F 70% 30.02 in 10.0 mi NNW 6.9 mph - N/A   Clear
8:56 PM 55.0 °F 48.0 °F 77% 30.03 in 10.0 mi North 9.2 mph - N/A   Clear
9:56 PM 54.0 °F 46.9 °F 77% 30.04 in 10.0 mi North 8.1 mph - N/A   Clear
10:56 PM 55.0 °F 46.0 °F 72% 30.04 in 10.0 mi NNE 8.1 mph - N/A   Clear
11:56 PM 55.9 °F 46.0 °F 69% 30.04 in 10.0 mi NE 6.9 mph - N/A   Clear